Weather History for OTBD - September, 2014

Change the Weather History Date:

Thursday, September 11, 2014

  Actual Average Record
Temperature  
Mean Temperature 100 °F -  
Max Temperature 108 °F 99 °F 111 °F (2008)
Min Temperature 92 °F 78 °F 78 °F (1997)
Cooling Degree Days 35    
Growing Degree Days 50 (Base 50)    
Moisture  
Dew Point 69 °F    
Average Humidity 39    
Maximum Humidity 56    
Minimum Humidity 17    
Precipitation  
Precipitation 0.00 in 0.00 in - ()
Sea Level Pressure  
Sea Level Pressure 29.65 in    
Wind  
Wind Speed 10 mph ()    
Max Wind Speed 17 mph    
Max Gust Speed -    
Visibility 9.4 miles    
Events      
Averages and records for this station are not official NWS values.
T = Trace of Precipitation, MM = Missing Value Source: Averaged Metar Reports

Daily Weather History Graph

Daily Weather History Graph

Search for Another Location

Airport or City:

Trip Planner

Search our weather history database for the weather conditions in past years. The results will help you decide how hot, cold, wet, or windy it might be!

Date:

Astronomy

Sep. 11, 2014 Rise Set
Actual Time 5:18 AM AST 5:42 PM AST
Civil Twilight 4:55 AM AST 6:05 PM AST
Nautical Twilight 4:28 AM AST 6:32 PM AST
Astronomical Twilight 4:00 AM AST 6:59 PM AST
Moon 7:26 PM AST (9/11) 7:29 AM AST (9/11)
Length of Visible Light 13h 10m
Length of Day
12h 24m
Waning Gibbous, 92% of the Moon is Illuminated
Sep 11
Waning Gibbous
Sep 16
Last Quarter
Sep 24
New
Oct 1
First Quarter
Oct 8
Full

Hourly Weather History & Observations

Time (AST) Temp. Heat Index Dew Point Humidity Pressure Visibility Wind Dir Wind Speed Gust Speed Precip Events Conditions
12:00 AM 93 °F - 75 °F 47% 29.64 in 9 mi NW 8.1 mph - -   Scattered Clouds
12:00 AM 93.2 °F 105.0 °F 75.2 °F 56% 29.62 in - NW 8.1 mph - N/A   Clear
12:30 AM 93.2 °F 105.0 °F 75.2 °F 56% 29.62 in - NW 8.1 mph - N/A   Clear
1:00 AM 93.2 °F 105.0 °F 75.2 °F 56% 29.62 in - NW 9.2 mph - N/A   Clear
1:30 AM 93.2 °F 102.4 °F 73.4 °F 52% 29.62 in - NW 9.2 mph - N/A   Clear
2:00 AM 93.2 °F 102.4 °F 73.4 °F 52% 29.59 in - NW 8.1 mph - N/A   Clear
2:30 AM 93.2 °F 100.5 °F 71.6 °F 49% 29.59 in - WNW 10.4 mph - N/A   Clear
3:00 AM 94 °F - 71 °F 38% 29.62 in 10 mi NW 9.2 mph - -  
3:00 AM 93.2 °F 100.5 °F 71.6 °F 49% 29.59 in - NW 9.2 mph - N/A   Clear
3:30 AM 93.2 °F 98.8 °F 69.8 °F 46% 29.62 in - NW 11.5 mph - N/A   Clear
4:00 AM 93.2 °F 98.8 °F 69.8 °F 46% 29.62 in - NW 9.2 mph - N/A   Clear
4:30 AM 93.2 °F 98.8 °F 69.8 °F 46% 29.62 in - NW 9.2 mph - N/A   Clear
5:00 AM 93.2 °F 100.5 °F 71.6 °F 49% 29.62 in - NW 10.4 mph - N/A   Clear
5:30 AM 93.2 °F 100.5 °F 71.6 °F 49% 29.65 in - NW 10.4 mph - N/A   Clear
6:00 AM 93 °F - 72 °F 42% 29.66 in 6 mi NW 12.7 mph - -  
6:00 AM 93.2 °F 102.4 °F 73.4 °F 52% 29.65 in - NW 12.7 mph - N/A   Clear
6:30 AM 93.2 °F 102.4 °F 73.4 °F 52% 29.65 in - NW 9.2 mph - N/A   Clear
7:00 AM 95.0 °F 103.2 °F 71.6 °F 47% 29.65 in - NW 8.1 mph - N/A   Clear
7:30 AM 96.8 °F 103.1 °F 69.8 °F 41% 29.68 in - NW 10.4 mph - N/A   Clear
8:00 AM 98.6 °F 104.1 °F 68.0 °F 37% 29.68 in - NNW 11.5 mph - N/A   Clear
8:30 AM 100.4 °F 106.3 °F 68.0 °F 35% 29.68 in - NNW 13.8 mph - N/A   Clear
9:00 AM 101 °F - 68 °F 25% 29.70 in 10 mi NNW 13.8 mph - -  
9:00 AM 100.4 °F 106.3 °F 68.0 °F 35% 29.68 in - NNW 13.8 mph - N/A   Clear
9:30 AM 102.2 °F 106.9 °F 66.2 °F 31% 29.68 in - NNW 13.8 mph - N/A   Clear
10:00 AM 104.0 °F 112.2 °F 69.8 °F 33% 29.68 in - North 12.7 mph - N/A   Clear
10:30 AM 104.0 °F 112.2 °F 69.8 °F 33% 29.68 in - North 15.0 mph - N/A   Clear
11:00 AM 105.8 °F 111.5 °F 66.2 °F 28% 29.68 in - North 16.1 mph - N/A   Clear
11:30 AM 107.6 °F 110.6 °F 62.6 °F 23% 29.68 in - North 17.3 mph - N/A   Clear
12:00 PM 107 °F - 65 °F 18% 29.69 in 10 mi North 15.0 mph - -  
12:00 PM 107.6 °F 112.3 °F 64.4 °F 25% 29.68 in - North 15.0 mph - N/A   Clear
12:30 PM 105.8 °F 111.5 °F 66.2 °F 28% 29.68 in - North 15.0 mph - N/A   Clear
1:00 PM 105.8 °F 113.2 °F 68.0 °F 30% 29.65 in - NNE 15.0 mph - N/A   Clear
1:30 PM 105.8 °F 113.2 °F 68.0 °F 30% 29.65 in - NNE 15.0 mph - N/A   Clear
2:00 PM 105.8 °F 113.2 °F 68.0 °F 30% 29.62 in - NNE 16.1 mph - N/A   Clear
2:30 PM 102.2 °F 114.4 °F 73.4 °F 40% 29.62 in - NNE 15.0 mph - N/A   Clear
3:00 PM 102 °F - 74 °F 32% 29.65 in 11 mi NNE 13.8 mph - -  
3:00 PM 102.2 °F 116.3 °F 75.2 °F 42% 29.62 in - NNE 13.8 mph - N/A   Clear
3:30 PM 100.4 °F 116.5 °F 77.0 °F 47% 29.62 in - NNE 11.5 mph - N/A   Clear
4:00 PM 98.6 °F 114.4 °F 77.0 °F 50% 29.62 in - North 11.5 mph - N/A   Clear
4:30 PM 98.6 °F 117.2 °F 78.8 °F 53% 29.62 in - North 10.4 mph - N/A   Clear
5:00 PM 98.6 °F 117.2 °F 78.8 °F 53% 29.62 in - North 9.2 mph - N/A   Clear
5:30 PM 98.6 °F 111.7 °F 75.2 °F 47% 29.62 in - North 9.2 mph - N/A   Clear
6:00 PM 101 °F - 60 °F 17% 29.65 in 10 mi NNW 10.4 mph - -  
6:00 PM 100.4 °F 101.3 °F 60.8 °F 27% 29.65 in - NNW 10.4 mph - N/A   Clear
6:30 PM 100.4 °F 100.2 °F 59.0 °F 25% 29.65 in - NNW 10.4 mph - N/A   Clear
7:00 PM 100.4 °F 101.3 °F 60.8 °F 27% 29.65 in - NW 8.1 mph - N/A   Clear
7:30 PM 98.6 °F 100.0 °F 62.6 °F 30% 29.65 in - NW 6.9 mph - N/A   Clear
8:00 PM 98.6 °F 99.4 °F 60.8 °F 29% 29.65 in - NW 6.9 mph - N/A   Clear
8:30 PM 96.8 °F 98.0 °F 62.6 °F 32% 29.68 in - NW 6.9 mph - N/A   Clear
9:00 PM 97 °F - 65 °F 25% 29.70 in 9 mi NW 8.1 mph - -  
9:00 PM 96.8 °F 99.0 °F 64.4 °F 34% 29.68 in - NW 8.1 mph - N/A   Clear
9:30 PM 96.8 °F 100.7 °F 66.2 °F 37% 29.68 in - WNW 5.8 mph - N/A   Clear
10:00 PM 96.8 °F 101.8 °F 68.0 °F 39% 29.68 in - WNW 6.9 mph - N/A   Clear
10:30 PM 95.0 °F 101.3 °F 69.8 °F 44% 29.68 in - WNW 6.9 mph - N/A   Clear
11:00 PM 95.0 °F 101.3 °F 69.8 °F 44% 29.68 in - WNW 6.9 mph - N/A   Clear
11:30 PM 95.0 °F 101.3 °F 69.8 °F 44% 29.68 in - WNW 6.9 mph - N/A   Clear